Back to catalog

SATELIOT_3

AliveCommunicationsSSO
NORAD 60552·PAYLOAD·🇪🇸 Spain

Launched Aug 16, 2024 from Vandenberg Space Force Base

Loading…

Next Passes (next 24 hours)

TLE

FreshSource: Space-Track

Epoch: Sep 14, 2026, 11:57 UTC

1 60552U 24149CN  26257.49799427  .00002236  00000-0  19249-3 0  9992
2 60552  97.6765 332.7696 0006593 129.8799 230.3004 14.98354623113455

Track SATELIOT_3 in real time with AllMySat

Download on the App Store